Location: Chapel Hill
(35.9134°N, 79.0560°W)
Time: 10:49:12
(UTC-05:00)

Hubble Space Telescope - Visible Passes

Search period start: 24 February 2024 00:00
Search period end: 05 March 2024 00:00
Orbit: 516 x 519 km, 28.5° (Epoch: 23 February)

Date Brightness Start Highest point End Pass type
(mag) Time Alt. Az. Time Alt. Az. Time Alt. Az.
24 Feb 2.5 19:47:09 10° SW 19:49:43 21° S 19:49:43 21° S visible
25 Feb 2.2 19:29:37 10° SW 19:32:48 23° S 19:33:27 22° SSE visible
26 Feb 2.3 19:12:05 10° SW 19:15:21 24° S 19:17:09 18° SE visible
27 Feb 2.2 18:54:34 10° SW 18:57:54 25° S 19:00:48 12° ESE visible
27 Feb 3.4 20:34:46 10° WSW 20:35:43 15° SW 20:35:43 15° SW visible
28 Feb 2.2 18:37:03 10° SW 18:40:26 26° S 18:43:49 10° ESE visible
28 Feb 2.8 20:17:21 10° WSW 20:19:21 21° SW 20:19:21 21° SW visible
29 Feb 2.4 19:59:57 10° WSW 20:03:00 24° SSW 20:03:00 24° SSW visible
01 Mar 2.3 19:42:32 10° WSW 19:45:45 23° S 19:46:38 21° S visible
02 Mar 2.6 19:25:09 10° WSW 19:28:14 21° SSW 19:30:19 15° SSE visible
03 Mar 2.8 19:07:46 10° WSW 19:10:43 20° SSW 19:13:40 10° SE visible
04 Mar 2.9 18:50:23 10° WSW 18:53:11 18° SSW 18:55:59 10° SSE visible
